User: anonymous   Login
Location: Prairie State College
(41.5244°N, 87.6382°W)
Time: 12:10:40
(UTC-06:00)
Language:

Cosmos 1140 Rocket - Orbit

View from above orbital plane
View from above orbital plane
View from above satellite
View from above satellite

Ground track
Ground track

The orbit data is extracted from the following two-line orbital elements,

1 11574U 79089B   17022.23319882  .00000029  00000-0  17380-4 0  9993
2 11574  74.0702 128.4489 0014774  68.5467 291.7262 14.40615289956127
Epoch (UTC): 22 January 2017 05:35:48
Eccentricity: 0.0014774
inclination: 74.0702°
perigee height: 746 km
apogee height: 767 km
right ascension of ascending node: 128.4489°
argument of perigee: 68.5467°
revolutions per day: 14.40615289
mean anomaly at epoch: 291.7262°
orbit number at epoch: 95612

The dashed part of the orbit path shows where the satellite is in the earth's shadow,  

DLR